Location: Newark
(40.2370°N, 1.4081°W)
Time: 18:22:45
(UTC+00:00)

N. Korean satellite - Pass Details

Date: 01 November 2019
Orbit: 456 x 506 km, 97.2° (Epoch: 12 November)

Event Time Altitude Azimuth Distance (km) Brightness Sun altitude
Rises 05:58:05 0° 12° (NNE) 2,600 10.3 -7.6°
Reaches altitude 10° 06:00:10 10° 12° (NNE) 1,717 9.4 -7.2°
Maximum altitude 06:03:53 86° 103° (ESE) 511 6.7 -6.5°
Drops below altitude 10° 06:07:35 10° 191° (SSW) 1,713 9.4 -5.8°
Sets 06:09:40 0° 192° (SSW) 2,594 10.3 -5.4°
